Retour au catalogue

OPS 4682 DEB

ActifPO
NORAD 51501·DEBRIS·🇺🇸 United States

Lancé Apr 3, 1965 depuis Vandenberg Space Force Base

Loading…

Prochains Passages (prochaines 24 heures)

TLE

FraisSource: Space-Track

Époque: Sep 14, 2026, 09:13 UTC

1 51501U 65027GM  26257.38419200 -.00000024  00000-0 -91713-4 0  9994
2 51501  90.3532  47.0937 0022837  94.3420 266.0318 13.09333700540420

Suivez OPS 4682 DEB en temps réel avec AllMySat

Download on the App Store